This demonstration page uses our WeatherBlox Daily Observations layout. Learn more.

Left ArrowRight Arrow

41.12389, -100.76542

Hourly Observations for December 22, 2016

Temp ( °F °C ) Dew Point ( °F °C ) Humidity (%) Winds ( mph kmh ) Pressure ( in mb ) Visibility ( mi km ) Precip ( " mm )
12:53 am 00:53 Clear 14 -10 9 -12.8 80 80 NW 5 7 30.46 1031 10 16 0.00 0.00
1:53 am 01:53 Clear 13 -10.6 9 -12.8 84 84 NW 3 6 30.48 1032 10 16 0.00 0.00
2:53 am 02:53 Clear 14 -10 11 -11.7 88 88 NW 3 6 30.47 1032 10 16 0.00 0.00
3:53 am 03:53 Clear 15 -9.4 11 -11.7 84 84 WNW 6 9 30.47 1032 10 16 0.00 0.00
4:53 am 04:53 Clear 15 -9.4 11 -11.7 84 84 NW 3 6 30.46 1032 10 16 0.00 0.00
5:53 am 05:53 Clear 16 -8.9 12 -11.1 84 84 NW 5 7 30.47 1032 10 16 0.00 0.00
6:53 am 06:53 Clear 18 -7.8 14 -10 84 84 Calm 30.46 1032 10 16 0.00 0.00
7:53 am 07:53 Clear 16 -8.9 12 -11.1 84 84 Calm 30.48 1032 10 16 0.00 0.00
8:53 am 08:53 Sunny 20 -6.7 15 -9.4 81 81 Calm 30.47 1032 10 16 0.00 0.00
9:53 am 09:53 Sunny 25 -3.9 19 -7.2 78 78 Calm 30.47 1032 10 16 0.00 0.00
10:53 am 10:53 Sunny 33 0.6 22 -5.6 64 64 Calm 30.45 1031 10 16 0.00 0.00
11:53 am 11:53 Sunny 42 5.6 19 -7.2 40 40 S 12 19 30.40 1029 10 16 0.00 0.00
12:53 pm 12:53 Sunny 43 6.1 16 -8.9 34 34 S 13 20 30.33 1027 10 16 0.00 0.00
1:53 pm 13:53 Sunny 46 7.8 15 -9.4 29 29 S 15 24 30.30 1026 10 16 0.00 0.00
2:53 pm 14:53 Sunny 45 7.2 14 -10 29 29 S 16 26 30.27 1025 10 16 0.00 0.00
3:53 pm 15:53 Sunny 45 7.2 15 -9.4 30 30 S 12 19 30.26 1025 10 16 0.00 0.00
4:53 pm 16:53 Sunny 43 6.1 16 -8.9 34 34 S 9 15 30.25 1024 10 16 0.00 0.00
5:53 pm 17:53 Partly Cloudy 42 5.6 23 -5 47 47 S 21 33 30.24 1024 10 16 0.00 0.00
6:53 pm 18:53 Mostly Cloudy 38 3.3 28 -2.2 68 68 SSW 17 28 30.24 1024 10 16 0.00 0.00
7:53 pm 19:53 Cloudy 36 2.2 29 -1.7 76 76 S 12 19 30.21 1023 10 16 0.00 0.00
8:53 pm 20:53 Cloudy 35 1.7 29 -1.7 78 78 S 12 19 30.19 1023 10 16 0.00 0.00
9:53 pm 21:53 Cloudy 34 1.1 28 -2.2 79 79 SSE 15 24 30.13 1020 10 16 0.00 0.00
10:37 pm 22:37 Mostly Cloudy 34 1.1 28 -2.2 79 79 S 9 15 30.15 1021 10 16 0.00 0.00
10:53 pm 22:53 Cloudy 34 1.1 28 -2.2 79 79 SSE 8 13 30.10 1019 10 16 0.00 0.00
11:32 pm 23:32 Mostly Cloudy 33 0.6 28 -2.2 82 82 S 10 17 30.12 1020 10 16 0.00 0.00
11:46 pm 23:46 Mostly Cloudy 34 1 28 -2 81 81 S 10 17 30.12 1020 10 16 0.00 0.00
11:53 pm 23:53 Mostly Cloudy 33 0.6 28 -2.2 82 82 SSE 14 22 30.04 1017 10 16 0.00 0.00

Powered by AerisWeather